Home   Weather   Edinburgh   Past weeks

Flag for United Kingdom Past Weather in Edinburgh, Scotland, United Kingdom — Yesterday and Last 2 Weeks

Now
52 °F

Clear.


Feels Like: 47 °F
Forecast: N/A
Wind: 14 mph from Southwest

Location: Edinburgh Airport

Current Time: Dec 9, 2016 at 11:15:02 pm

Latest Report: Dec 9, 2016 at 10:50 pm


Visibility: 10 mi

Pressure: 29.89 "Hg

Humidity: 82%

Dew Point: 46 °F

Location of EdinburghLocation

Past Weather in Edinburgh — Graph

°F

Edinburgh Temperature Yesterday

Maximum temperature yesterday: 54 °F (at 12:20 am)
Minimum temperature yesterday: 39 °F (at 9:50 pm)
Average temperature yesterday: 49 °F

High & Low Weather Summary for the Past Weeks

 TemperatureHumidityPressure
High59 °F (Dec 7, 8:20 pm)100% (Nov 24, 9:20 pm)30.54 "Hg (Nov 24, 9:20 pm)
Low19 °F (Dec 5, 4:50 am)62% (Dec 1, 11:50 am)29.83 "Hg (Dec 7, 12:50 pm)
Average40 °F88%30.27 "Hg
* Reported Nov 24 9:20 pm — Dec 9 9:50 pm, Edinburgh, Weather by CustomWeather, © 2016

Note: Actual official high and low records may vary slightly from our data, if they occured in-between our weather recording intervals... More about our weather records

Advertising

Edinburgh Weather History for the Previous 24 Hours

Scroll right to see more
 ConditionsComfort  
Time TempWeatherWind HumidityBarometerVisibility
9:50 pm
Fri, Dec 9
52 °FCool.17 mph82%29.92 "HgN/A
9:20 pm52 °FPassing clouds.17 mph82%29.92 "HgN/A
8:50 pm52 °FPassing clouds.17 mph82%29.92 "HgN/A
8:20 pm54 °FPassing clouds.16 mph82%29.89 "HgN/A
7:50 pm54 °FPassing clouds.15 mph82%29.89 "HgN/A
7:20 pm54 °FLight rain. Passing clouds.18 mph82%29.89 "HgN/A
6:50 pm54 °FPassing clouds.15 mph82%29.89 "HgN/A
6:20 pm54 °FClear.13 mph82%29.89 "Hg10 mi
5:50 pm54 °FClear.16 mph82%29.89 "Hg10 mi
5:20 pm54 °FClear.17 mph82%29.89 "Hg10 mi
4:50 pm54 °FClear.18 mph82%29.89 "Hg10 mi
4:20 pm55 °FPassing clouds.14 mph77%29.89 "HgN/A
3:50 pm55 °FPassing clouds.17 mph77%29.89 "HgN/A
3:20 pm55 °FPassing clouds.16 mph77%29.92 "HgN/A
2:50 pm55 °FPassing clouds.15 mph77%29.92 "HgN/A
2:20 pm55 °FPassing clouds.14 mph82%29.92 "HgN/A
1:50 pm55 °FSprinkles. Passing clouds.17 mph82%29.92 "HgN/A
1:20 pm55 °FPassing clouds.17 mph82%29.92 "HgN/A
12:50 pm55 °FPassing clouds.10 mph82%29.92 "HgN/A
12:20 pm55 °FPassing clouds.8 mph82%29.92 "HgN/A
11:50 am55 °FPassing clouds.8 mph82%29.92 "HgN/A
11:20 am55 °FPassing clouds.10 mph88%29.92 "HgN/A
10:50 am55 °FScattered clouds.9 mph88%29.95 "HgN/A
10:20 am55 °FBroken clouds.9 mph88%29.95 "HgN/A
9:50 am55 °FPartly sunny.17 mph88%29.92 "HgN/A
9:20 am55 °FPartly sunny.13 mph82%29.92 "HgN/A
8:50 am55 °FBroken clouds.16 mph82%29.92 "HgN/A
8:20 am55 °FPassing clouds.16 mph82%29.92 "HgN/A
7:50 am55 °FPassing clouds.17 mph88%29.92 "HgN/A
7:20 am55 °FPassing clouds.14 mph88%29.95 "HgN/A
6:50 am55 °FPassing clouds.13 mph82%29.95 "HgN/A
6:20 am50 °FOvercast.3 mph94%29.95 "HgN/A
5:50 am46 °FOvercast.6 mph93%29.98 "HgN/A
5:20 am46 °FLight rain. Overcast.3 mph93%29.98 "HgN/A
4:20 am46 °FPassing clouds.3 mph93%30.01 "HgN/A
3:50 am45 °FPassing clouds.3 mph100%30.01 "HgN/A
3:20 am43 °FOvercast.3 mph100%30.04 "HgN/A
2:50 am43 °FOvercast.1 mph93%30.07 "Hg6 mi
2:20 am41 °FOvercast.2 mph100%30.07 "Hg4 mi
1:50 am39 °FOvercast.1 mph100%30.09 "Hg4 mi
1:20 am37 °FPassing clouds.3 mph100%30.09 "Hg4 mi
12:50 am37 °FFog.2 mph100%30.09 "Hg3 mi
11:50 pm
Thu, Dec 8
43 °FClear.5 mph93%30.09 "Hg10 mi
11:20 pm41 °FClear.5 mph93%30.12 "Hg10 mi
Weather by CustomWeather, © 2016

See weather overviewHow to use our weather pages